Flag for U.S.A. Weather past 2 weeks in Cincinnati, Ohio, U.S.A.

Now
36 °F

Sunny.


Feels Like: 36 °F
Forecast: 35 / 66 °F
Wind: No wind

Location: Cincinnati Municipal Airport Lunken Field

Current Time: Apr 1, 2015 at 9:39:57 AM

Latest Report: Apr 1, 2015 at 8:53 AM


Visibility: 10 mi

Pressure: 30.16 "Hg

Humidity: 97%

Dew point: 35 °F

Location of CincinnatiLocation

Historic Weather in Cincinnati — Graph

°F

Cincinnati temperature yesterday

Maximum temperature yesterday: 69 °F (at 2:53 PM)
Minimum temperature yesterday: 35 °F (at 4:53 AM)
Average temperature yesterday: 53 °F

Past Weeks' High & Low Weather Summary

 TemperatureHumidityPressure
High69 °F (Mar 25, 3:53 PM)100% (Mar 24, 9:53 PM)30.41 "Hg (Mar 24, 9:53 PM)
Low19 °F (Mar 29, 7:53 AM)23% (Mar 29, 6:53 PM)29.80 "Hg (Mar 31, 11:53 AM)
Average43 °F63%30.13 "Hg
* Reported Mar 17 7:53 AM — Apr 1 7:53 AM, Cincinnati, Weather by CustomWeather, © 2015

Note: Actual official high and low records may vary slightly from our data, if they occured in-between our weather recording intervals... More about our weather records

Advertising

Cincinnati weather history for previous 24 hours

 ConditionsComfort  
Time TempWeatherWind HumidityBarometerVisibility
7:53 AM
Wed, Apr 1
31 °FClear.No wind100%30.14 "Hg7 mi
6:53 AM31 °FClear.No wind96%30.11 "Hg10 mi
5:53 AM31 °FIce fog.No wind96%30.09 "Hg6 mi
4:53 AM32 °FClear.No wind96%30.08 "Hg8 mi
3:53 AM34 °FClear.No wind92%30.07 "Hg10 mi
2:53 AM36 °FClear.No wind85%30.08 "Hg10 mi
1:53 AM37 °FClear.6 mph86%30.07 "Hg10 mi
12:53 AM42 °FClear.9 mph76%30.06 "Hg10 mi
11:53 PM
Tue, Mar 31
42 °FClear.7 mph76%30.05 "Hg10 mi
10:53 PM45 °FClear.6 mph71%30.02 "Hg10 mi
9:53 PM49 °FClear.6 mph66%30.01 "Hg10 mi
8:53 PM53 °FSunny.12 mph55%29.97 "Hg10 mi
7:53 PM56 °FPassing clouds.10 mph46%29.93 "Hg10 mi
6:53 PM60 °FPassing clouds.17 mph39%29.90 "Hg10 mi
5:53 PM63 °FPassing clouds.21 mph35%29.88 "Hg10 mi
4:53 PM65 °FSunny.21 mph32%29.85 "Hg10 mi
3:53 PM67 °FSunny.20 mph33%29.83 "Hg10 mi
2:53 PM69 °FSunny.23 mph24%29.81 "Hg10 mi
1:53 PM68 °FSunny.18 mph33%29.80 "Hg10 mi
12:53 PM67 °FSunny.18 mph36%29.80 "Hg10 mi
11:53 AM65 °FSunny.17 mph37%29.80 "Hg10 mi
10:53 AM61 °FSunny.14 mph42%29.80 "Hg10 mi
9:53 AM57 °FSunny.16 mph46%29.81 "Hg10 mi
Weather by CustomWeather, © 2015

See weather overviewHow to use our weather pages